Home   Weather   Thule Air Base   Past weeks
Flag for Greenland

Past Weather in Thule Air Base, Greenland — Yesterday and Last 2 Weeks

Now
36 °F

Scattered clouds.


Feels Like: 30 °F
Forecast: N/A
Wind: 7 mph from Northwest

Location: Thule A. B.

Current Time: May 22, 2019 at 5:51:28 pm

Latest Report: May 22, 2019 at 4:56 pm


Visibility: N/A

Pressure: 30.29 "Hg

Humidity: 93%

Dew Point: 34 °F

Location of Thule Air BaseLocation

Past Weather in Thule Air Base — Graph

°F

Thule Air Base Temperature Yesterday

Maximum temperature yesterday: 30 °F (at 5:56 am)
Minimum temperature yesterday: 27 °F (at 1:56 am)
Average temperature yesterday: 30 °F

High & Low Weather Summary for the Past Weeks

 TemperatureHumidityPressure
High41 °F (May 14, 2:56 pm)100% (May 7, 3:56 pm)30.43 "Hg (May 7, 3:56 pm)
Low23 °F (May 10, 12:36 am)48% (May 15, 3:56 pm)29.73 "Hg (May 15, 5:56 pm)
Average30 °F94%30.17 "Hg
* Reported May 7 3:56 pm — May 22 3:56 pm, Thule Air Base. Weather by CustomWeather, © 2019

Note: Actual official high and low records may vary slightly from our data, if they occured in-between our weather recording intervals... More about our weather records

Advertising

Thule Air Base Weather History for the Previous 24 Hours

Scroll right to see more
 ConditionsComfort  
Time TempWeatherWind HumidityBarometerVisibility
3:56 pm
Wed, May 22
34 °FPartly sunny.8 mph100%30.29 "HgN/A
2:56 pm36 °FOvercast.6 mph93%30.29 "HgN/A
1:56 pm34 °FPartly sunny.7 mph93%30.29 "HgN/A
12:56 pm34 °FOvercast.8 mph93%30.29 "HgN/A
11:56 am34 °FOvercast.7 mph93%30.31 "HgN/A
10:56 am34 °FOvercast.6 mph93%30.31 "HgN/A
9:56 am34 °FMore clouds than sun.6 mph93%30.35 "HgN/A
8:56 am34 °FPartly sunny.7 mph93%30.31 "HgN/A
7:56 am32 °FMostly cloudy.7 mph100%30.31 "HgN/A
6:56 am32 °FMostly cloudy.No wind93%30.29 "HgN/A
5:56 am30 °FOvercast.No wind100%30.30 "HgN/A
4:56 am30 °FOvercast.No wind100%30.30 "HgN/A
3:56 am30 °FOvercast.No wind100%30.30 "HgN/A
2:56 am30 °FOvercast.No wind93%30.30 "HgN/A
1:56 am30 °FOvercast.No wind93%30.30 "HgN/A
12:56 am30 °FOvercast.No wind86%30.30 "HgN/A
11:56 pm
Tue, May 21
30 °FOvercast.5 mph93%30.30 "HgN/A
9:56 pm30 °FOvercast.6 mph100%30.30 "HgN/A
8:56 pm30 °FSunny.6 mph100%30.29 "HgN/A
7:56 pm30 °FPartly sunny.6 mph100%30.29 "HgN/A
6:56 pm30 °FSunny.7 mph100%30.28 "HgN/A
5:56 pm30 °FSunny.8 mph100%30.28 "HgN/A
Weather by CustomWeather, © 2019

See weather overview